ゲーレルス第2彗星

78P/Gehrels 2 (2004)

English version
Home page
Updated on January 7, 2006

---------------------------------------------------------------------

・ プロフィール

・ 写真集

・ 軌道要素

The following orbital elements are taken from MPC 52321: 

Epoch 2004 Nov. 11.0 TT = JDT 2453320.5
T 2004 Oct. 27.0675 TT                                  MPC
q   2.008183             (2000.0)            P               Q
n   0.1364659      Peri.  192.9623      +0.7259384      -0.6855284
a   3.736400       Node   210.5472      +0.6403269      +0.7030521
e   0.462535       Incl.    6.2527      +0.2509880      +0.1891258
P   7.22
From 438 observations 1973-2004, mean residual 0".8.  Nongravitational
     parameters A1 = -0.78, A2 = -0.0270.

・ 星図

・ 光度変化

        m1 = -1   + 5 logΔ + 40   log r  [   ,  0]  (              〜2004年10月27日)
        m1 =  5.7 + 5 logΔ + 15.0 log r  [  0,240]  (2004年10月27日〜2005年 6月24日)
        m1 = -0.8 + 5 logΔ + 30.0 log r  [240,   ]  (2005年 6月24日〜               )

---------------------------------------------------------------------

軌道要素はMPCのEphemerides and Orbital Elementsに掲載されたものです。
星図は StellaNavigator Ver.2.0 for Windows (アストロアーツ 編著 / アスキー出版局刊) で作成したものです。
光度グラフはComet for Windowsで作成したものです。

---------------------------------------------------------------------

Copyright(C) Seiichi Yoshida (comet@aerith.net). All rights reserved.